FW5912 Weather Reports


time (UTC)temp
C
wind
direction
speed
KPH
gust
KPH
rain 1hr
cm
rain 24hr
cm
rain mn
cm
humidity
%
barometer
mb
20260505153108 26 219 14.5 27.4 0.00 0.00 0.00 84 1011.4
20260505151610 25 146 14.5 25.7 0.00 0.00 0.00 85 1011.6
20260505140113 24 172 19.3 33.8 0.00 0.00 0.00 87 1011.3
20260505124607 23 182 17.7 32.2 0.00 0.00 0.00 87 1010.9
20260505123057 23 144 17.7 29.0 0.00 0.00 0.00 87 1011.1
20260505121559 23 158 14.5 37.0 0.00 0.00 0.00 87 1011.0
20260505120058 23 183 17.7 29.0 0.00 0.00 0.00 87 1010.8
20260505114559 23 252 16.1 29.0 0.00 0.00 0.00 87 1010.8
20260505113123 23 204 17.7 27.4 0.00 0.00 0.00 87 1011.2
20260505111554 23 144 16.1 30.6 0.00 0.00 0.00 87 1010.6
20260505101556 23 147 16.1 29.0 0.00 0.00 0.00 86 1010.8
20260505100053 23 156 19.3 30.6 0.00 0.00 0.00 86 1010.9
20260505094552 23 217 17.7 29.0 0.00 0.00 0.00 85 1010.8
20260505093059 23 173 17.7 35.4 0.00 0.00 0.00 85 1010.8
20260505091605 23 201 16.1 30.6 0.00 0.00 0.00 85 1010.7
20260505090052 23 169 19.3 35.4 0.00 0.00 0.00 85 1010.7
20260505084555 23 160 20.9 32.2 0.00 0.00 0.00 85 1010.7
20260505083100 23 171 17.7 37.0 0.00 0.00 0.00 85 1010.9
20260505081605 23 205 19.3 35.4 0.00 0.00 0.00 85 1011.1
20260505080053 23 150 17.7 29.0 0.00 0.00 0.00 85 1011.2
20260505074553 23 132 19.3 37.0 0.00 0.00 0.00 84 1011.2
20260505073111 23 195 20.9 46.7 0.00 0.00 0.00 84 1011.4
20260505071602 23 159 17.7 35.4 0.00 0.00 0.00 84 1011.6
20260505064554 23 136 20.9 30.6 0.00 0.00 0.00 83 1012.1
20260505063053 23 153 20.9 35.4 0.00 0.00 0.00 83 1012.3
20260505061555 23 178 20.9 33.8 0.00 0.00 0.00 82 1012.2
20260505060056 23 146 19.3 33.8 0.00 0.00 0.00 83 1012.4
20260505054555 23 175 19.3 33.8 0.00 0.00 0.00 82 1012.4
20260505053057 23 142 19.3 32.2 0.00 0.00 0.00 82 1012.3
20260505051604 23 164 20.9 35.4 0.00 0.00 0.00 81 1012.6
20260505050106 23 186 19.3 30.6 0.00 0.00 0.00 81 1012.8
20260505041602 23 134 20.9 35.4 0.00 0.00 0.00 80 1013.1
20260505040056 23 142 19.3 37.0 0.00 0.00 0.00 80 1013.3
20260505034554 23 138 22.5 33.8 0.00 0.00 0.00 80 1013.2
20260505033053 23 132 22.5 33.8 0.00 0.00 0.00 79 1013.2
20260505031557 23 169 22.5 33.8 0.00 0.00 0.00 80 1013.3
20260505030055 23 159 19.3 30.6 0.00 0.00 0.00 79 1013.4
20260505024601 23 195 20.9 37.0 0.00 0.00 0.00 78 1013.3
20260505023054 23 172 22.5 32.2 0.00 0.00 0.00 78 1013.3
20260505021552 23 190 20.9 30.6 0.00 0.00 0.00 77 1013.2
20260505020055 23 143 19.3 30.6 0.00 0.00 0.00 78 1013.0
20260505014553 23 144 22.5 30.6 0.00 0.00 0.00 77 1013.0
20260505013121 23 185 16.1 30.6 0.00 0.00 0.00 77 1013.1
20260505011613 23 153 14.5 29.0 0.00 0.00 0.00 76 1013.0
20260505010110 23 147 17.7 30.6 0.00 0.00 0.00 76 1012.9
20260505004558 23 162 19.3 30.6 0.00 0.00 0.00 75 1012.7
20260505003056 23 150 19.3 27.4 0.00 0.00 0.00 75 1012.8
20260505001555 23 148 16.1 27.4 0.00 0.00 0.00 75 1013.0
20260505000106 23 213 19.3 30.6 0.00 0.00 0.00 74 1013.1
20260504234552 23 153 16.1 24.1 0.00 0.00 0.00 74 1013.2
20260504233104 24 138 16.1 25.7 0.00 0.00 0.00 73 1013.3
20260504231557 23 163 16.1 25.7 0.00 0.00 0.00 72 1013.7
20260504230100 23 132 14.5 24.1 0.00 0.00 0.00 72 1013.8
20260504224555 24 148 16.1 20.9 0.00 0.00 0.00 71 1013.8
20260504223102 24 153 16.1 22.5 0.00 0.00 0.00 70 1014.0
20260504221555 25 149 14.5 20.9 0.00 0.00 0.00 70 1014.2
20260504220057 25 185 12.9 22.5 0.00 0.00 0.00 67 1014.3
20260504214614 25 182 11.3 25.7 0.00 0.00 0.00 67 1014.6
20260504213106 25 185 11.3 20.9 0.00 0.00 0.00 66 1014.7
20260504211555 25 109 12.9 24.1 0.00 0.00 0.00 67 1015.0
20260504204555 25 151 14.5 22.5 0.00 0.00 0.00 67 1015.0
20260504203103 25 146 12.9 19.3 0.00 0.00 0.00 66 1015.3
20260504201616 25 142 12.9 22.5 0.00 0.00 0.00 67 1015.4
20260504200057 25 154 12.9 22.5 0.00 0.00 0.00 66 1015.6
20260504194555 25 149 11.3 24.1 0.00 0.00 0.00 66 1016.0
20260504193113 25 126 14.5 24.1 0.00 0.00 0.00 66 1015.8
20260504191601 25 143 11.3 22.5 0.00 0.00 0.00 65 1016.1
20260504190115 25 188 14.5 24.1 0.00 0.00 0.00 66 1016.1
20260504184626 25 145 12.9 22.5 0.00 0.00 0.00 64 1016.2
20260504183112 25 151 12.9 24.1 0.00 0.00 0.00 66 1016.4
20260504181557 25 190 11.3 24.1 0.00 0.00 0.00 66 1016.5
20260504180055 25 142 16.1 25.7 0.00 0.00 0.00 66 1016.6
20260504174555 25 158 12.9 25.7 0.00 0.00 0.00 64 1016.8
20260504173056 25 192 12.9 22.5 0.00 0.00 0.00 65 1017.1
20260504171602 25 204 14.5 24.1 0.00 0.00 0.00 66 1017.1
20260504160105 24 169 16.1 24.1 0.00 0.00 0.00 65 1017.8